User: anonymous   Login
Location: Unspecified
(0.0000°N, 0.0000°E)
Time: 05:20:38
(UTC+00:00)
Language:

CBERS 2 - Orbit

View from above orbital plane
View from above orbital plane
View from above satellite
View from above satellite

Ground track
Ground track

The orbit data is extracted from the following two-line orbital elements,

1 28057U 03049A   18146.78771194 -.00000002  00000-0  14142-4 0  9991
2 28057  98.3830  96.6876 0000475  70.4107 289.7135 14.35586552764817
Epoch (UTC): 26 May 2018 18:54:18
Eccentricity: 0.0000475
inclination: 98.3830°
perigee height: 773 km
apogee height: 773 km
right ascension of ascending node: 96.6876°
argument of perigee: 70.4107°
revolutions per day: 14.35586552
mean anomaly at epoch: 289.7135°
orbit number at epoch: 76481

The dashed part of the orbit path shows where the satellite is in the earth's shadow,  

DLR